Погода Октябрьское

Погода Октябрьское : погода сейчас, прогноз погоды и архив. Всё, что Вы хотите узнать о погоде Октябрьское!

Поиск расширенной информации на нашем сайте:

Другие новости

Новости СМИ2

Главная страница сайта

Новости сайта

03.07.2017

Напоминаем, что на нашем специализированном сайте Метеоцентр.Азия вы можете получить высокодетализированные автоматические прогнозы погоды по пунктам России, СНГ и мира в авиационном формате (включающие направление и скорость ветра, видимость, явления погоды, количество и форму облачности, нижнюю и верхнюю границу облачности).


Погода Октябрьское - сегодня

Время (UTC), дата Ветер
(°,м/с) 
Видим.   Явления Облачность Т
(°С)
Тd
(°С)
f(%) Тe
(°С)
Pmin
(гПа)
dP
(гПа)
Po
(мм)
O2
(г/м3)
Тmin Tmax R s Состояние
почвы
15 14.10.18 360 (С) 20000 м  [диам. отлож. мокр. снега 1 мм]  10/10 1000 м 
[Sc]
-3.8 -5.2 90 -3  1014.4  754  309    -0.5  0.0     
18 14.10.18 020 (С) 20000 м    10/10 1000 м 
[Sc]
-6.2 -7.2 93 -6  1015.4  755  312           
21 14.10.18 тихо ()   20000 м  [диам. отлож. мокр. снега 1 мм]  10/10 1000 м 
[Sc]
-5.6 -6.6 93 -6  1016.7  1.3  756  312           
00 15.10.18 180 (Ю) 20000 м  [диам. отлож. мокр. снега 1 мм]  10/10 1000 м 
[Sc]
-5.5 -6.3 94 -5  1017.2  0.4  756  312           
03 15.10.18 тихо ()   1000 м  [диам. отлож. мокр. снега 1 мм]  10/0 верхняя 
[Ci fib]
-5.3 -6 95 -5  1018.4  1.2  757  312  -6.6      равномерный
мокрый или
старый снег
100% 
12 15.10.18 150 (ЮВ) 20000 м  в посл. час ливневой снег  9/9 600 м кучево-дожд. 
[Cb cap]
-2.7 -4.4 88 -2  1019.7  0.3  758  309           
18 15.10.18 180 (Ю) 20000 м    10/10 600 м 
[Sc]
-3.2 -4.7 89 -4  1019.7  -0.4  758  310           
21 15.10.18 190 (Ю) н/о    н/о 
-4 -5.7 88 -6  1018.9  -0.8  757  310           
00 16.10.18 140 (ЮВ) 20000 м    9/9 1000 м 
[Sc]
-5.2 -6.7 89 -8  1016.8  -2.1  756  311           
03 16.10.18 160 (Ю) 20000 м    10/10 600 м 
[Sc]
-4.5 -5.6 92 -7  1013.1  -3.6  753  309  -5.3      равномерный
мокрый или
старый снег
100% 
06 16.10.18 180 (Ю) 1000 м  снег  10/10 600 м 
[Ns]
-3.2 -4 94 -6  1010.6  -2.5  751  307           
15 16.10.18 210 (ЮЗ) 4000 м  слаб. переохл. дождь (гололёд) [диам. гололёда 4 мм]  10/10 600 м 
[Ns]
-2.2 -2.7 96 -2  1006.4  -1.2  748  304    -2.1     
18 16.10.18 220 (ЮЗ) 0500 м  туман{дождь} [диам. гололёда 4 мм]  ?/?  
-2.1 -2.5 97 -2  1004.3  -2  746  303           
00 17.10.18 190 (Ю) 0500 м  туман{морось}  ?/?  
-1.9 -2.3 97 -1  999.6  -2.9  743  302           
03 17.10.18 150 (ЮВ) 0200 м  слаб. снег{туман}  ?/?  
-1.8 -2.2 97 -1  997.2  -2.4  741  301  -2.3    равномерный
мокрый или
старый снег
100% 
15 17.10.18 350 (С) 4000 м  слаб. снег [диам. отлож. мокр. снега 0 мм]  10/10 600 м 
[Ns]
+0.3 -0.3 96 -1  999.6  2.9  743  299    +0.3  16     
18 17.10.18 350 (С) 20000 м  {снег}  6/6 600 м 
[Sc]
-0.3 -1.3 93 -1  1001.3  1.6  744  300           
21 17.10.18 340 (С) 20000 м    8/8 600 м 
[Sc]
-0.7 -1.8 92 -3  1003.1  1.8  746  301           
00 18.10.18 330 (СЗ) 4000 м  слаб. снег  10/10 600 м 
[Ns]
-2.8 -3.6 94 -4  1005.1  1.9  747  305           
03 18.10.18 350 (С) 4000 м  слаб. снег  10/6 1000 м средняя 
[Sc|As op]
-2.7 -3.7 93 -5  1007.3  2.1  749  305  -2.9    0.5  12  равномерный
мокрый или
старый снег
100% 
06 18.10.18 360 (С) 20000 м  в посл. час снег  10/8 1000 м верхняя 
[Sc|Ci fib]
-2.3 -4.3 86 -4  1009.5  2.2  750  305           
09 18.10.18 360 (С) 20000 м  {снег}  10/10 1000 м 
[Sc]
-2.6 -5.3 82 -4  1011.1  1.6  751  306           
12 18.10.18 340 (С) 20000 м    10/10 1000 м 
[Sc]
-3.4 -5.2 87 -3  1012.5  1.4  752  308           
18 18.10.18 340 (С) 20000 м    10/10 1000 м 
[Sc]
-4.5 -5.9 90 -4  1011.6  -1  752  309           
21 18.10.18 030 (СВ) 20000 м    10/10 1000 м 
[Sc]
-4.8 -6.2 90 -4  1010.7  -0.9  751  309           
Время (UTC), дата Ветер
(°,м/с) 
Видим.   Явления Облачность Т
(°С)
Тd
(°С)
f(%) Тe
(°С)
Pmin
(гПа)
dP
(гПа)
Po
(мм)
O2
(г/м3)
Тmin Tmax R s Состояние
почвы

Для получения пояснительной информации подведите курсор к названию столбца.

ПОГОДА Октябрьское - архив

Всё, что Вы хотите узнать о погоде Октябрьское - удобно и подробно!

Выберите нужную дату (начиная с 1 января 2015* года) и нажмите кнопку "Найти".
Будут отображены архивные сводки погоды по пункту Октябрьское, начиная с указанной даты.


Отображать данные в формате CSV (для использования в таблицах Excel)


Внимание! Наш архив погоды предназначен исключительно для личного некоммерческого использования в познавательных целях. Если Вам необходимы официальные справки о состоянии погоды (для производственных, юридических, коммерческих и т.п. целей), обращайтесь в органы Росгидромета.

*Примечание: данная дата относится к архиву по метеостанциям СССР (Россия, СНГ, Балтия).
Архив по метеостанциям Зарубежной Европы и Азии (кроме Китая) хранится 10 дней, по другим регионам земного шара (Китай, Африка, Америка, Австралия, Океания) - 1 день.

Октябрьское - район местоположения метеостанции


Название, широта, долгота, высота метеостанции:
Октябрьское 62.4°ш. 66.1°д. 72 м над ур. моря [Российская Федерация]

Дополнительная информация

В oтличие oт бoльшинства пoгoдных сайтoв мы публикуем пoдрoбную метеoинфoрмацию в детальнoм прoфессиoнальнoм фoрмате.

Характеристики температуры и влажнoсти вoздуха измеряются на высoте 2 м в тени вдали oт зданий и деревьев.
Скoрoсть ветра измеряется на высoте 10 м (на урoвне рoста челoвека скoрoсть ветра ниже в 1.5-2 раза). Если метеoстанция нахoдится в гoрoде или в лесу, тo скoрoсть ветра занижена на 2-4 м/с пo сравнению с oткрытым местoм. Скoрoсть ветра над акватoриями крупных рек и oзёр, а также на вершинах хoлмoв на 2-5 м/с выше, чем в oбычных услoвиях.
Атмoсфернoе давление в разных тoчках местнoсти мoжет значительнo oтличаться oт давления на метеoстанции, в зависимoсти oт услoвий рельефа (при пoдъёме на 10 м давление пoнижается примернo на 1 мм рт.ст.).